Regional Weather Roundup
Issued by NWS

Home | Current Version | Previous Version | Text Only | Print | Product List | Glossary Off
Versions: 1 2 3 4 5 6 7 8 9 10 11 12 13 14 15 16 17 18 19 20 21 22 23 24 25 26 27 28 29 30 31 32 33 34 35 36 37 38 39 40 41 42 43 44 45 46 47 48 49 50

000
ASUS45 KCYS 241210
RWRWY

WYOMING REGIONAL WEATHER ROUNDUP
NATIONAL WEATHER SERVICE CHEYENNE WY
500 AM MST MON NOV 24 2014

NOTE:  "FAIR" INDICATES FEW OR NO CLOUDS BELOW 12,000 FEET
WITH NO SIGNIFICANT WEATHER AND/OR OBSTRUCTIONS TO VISIBILITY.

WYZ001-241300-
YELLOWSTONE NATIONAL PARK

CITY           SKY/WX    TMP DP  RH WIND       PRES   REMARKS
LK YELLOWSTONE   N/A     17  12  80 W7        29.97R WCI   8
6HR MIN TEMP:  17; 6HR MAX TEMP:  20; 6HR PCP:  0.01;

W YELLOWSTONE  NOT AVBL

$$
WYZ002>013-054>058-071-098>099-241300-
NORTHERN WYOMING

CITY           SKY/WX    TMP DP  RH WIND       PRES   REMARKS
JACKSON        CLOUDY    25  23  93 CALM      30.02R
CODY           CLOUDY    34  16  47 NW9       29.89R WCI  26
GREYBULL       CLOUDY    26  21  81 W3        29.91R
6HR MIN TEMP:  24; 6HR MAX TEMP:  28;

WORLAND        CLOUDY    18  14  84 CALM      29.90R
6HR MIN TEMP:  16; 6HR MAX TEMP:  28;

SHERIDAN       LGT SNOW  31  28  89 NW15G22   29.87R FOG     WCI  20
6HR MIN TEMP:  26; 6HR MAX TEMP:  35; 6HR PCP: TRACE;

BUFFALO        MOCLDY    30  20  66 N21G29    29.80S WCI  17
6HR MIN TEMP:  25; 6HR MAX TEMP:  32;

GILLETTE       NOT AVBL
HULETT           N/A     30  27  86 MISG        N/A
NEWCASTLE      FAIR      27  19  74 NW13      29.80R WCI  16

$$
WYZ014>020-022>026-101>103-241300-
CENTRAL WYOMING

CITY           SKY/WX    TMP DP  RH WIND       PRES   REMARKS
BIG PINEY      MOCLDY    32  14  47 NW8       29.98R WCI  25
6HR MIN TEMP:  21; 6HR MAX TEMP:  41; 6HR PCP: TRACE;

PINEDALE       MOSUNNY   10   9  92 CALM      29.98R
DUBOIS         LGT SNOW  23  14  68 NW20G30   29.92R WCI   8
LANDER         NOT AVBL
RIVERTON       CLEAR     29  12  49 W23G33    29.86S WCI  15
6HR MIN TEMP:  22; 6HR MAX TEMP:  29;

CASPER         CLOUDY    26  13  57 SW12      29.84R WCI  16
6HR MIN TEMP:  25; 6HR MAX TEMP:  27;

DOUGLAS        CLOUDY   N/A N/A N/A NW12      29.83R

$$
WYZ021-027>030-104>119-241300-
SOUTHERN WYOMING

CITY           SKY/WX    TMP DP  RH WIND       PRES   REMARKS
EVANSTON       LGT SNOW  22  21  96 SW20      30.08R VSB 1   WCI   7
6HR MIN TEMP:  21; 6HR MAX TEMP:  23; 6HR PCP: TRACE;

KEMMERER       LGT SNOW  23  23 100 W18G29    30.02R VSB 1   WCI   9
FORT BRIDGER   LGT SNOW  25  23  93 W22G31    30.06R WCI  10
ROCK SPRINGS   CLOUDY    23  18  81 W29G36    29.98S WCI   6
6HR MIN TEMP:  22; 6HR MAX TEMP:  23; 6HR PCP: TRACE;

DIXON          LGT SNOW  23  17  78 SW17G23   30.01S WCI   9
RAWLINS        CLOUDY    22  16  78 W22G31    29.90R WCI   6
6HR MIN TEMP:  21; 6HR MAX TEMP:  23;

SARATOGA       CLOUDY    23  19  86 W22G31    29.89S WCI   8
LARAMIE        PTCLDY    21  10  62 W15       29.81S WCI   8
6HR MIN TEMP:  14; 6HR MAX TEMP:  21;

CHEYENNE       CLOUDY    27  10  49 NW18G29   29.81R WCI  14
6HR MIN TEMP:  24; 6HR MAX TEMP:  28;

TORRINGTON     CLOUDY    27  15  61 NW7       29.82R WCI  19
6HR MIN TEMP:  18; 6HR MAX TEMP:  27;

PINE BLUFFS    FAIR      30  14  51 NW28G37   29.81R WCI  16

$$


USA.gov is the U.S. government's official web portal to all federal, state and local government web resources and services.